Flag for Austria Past Weather in Saalfelden am Steinernen Meer, Salzburg, Austria — Yesterday and Last 2 Weeks

Now
30 °F

Partly cloudy.


Feels Like: 30 °F
Forecast: 28 / 45 °F
Wind: 2 mph from North

Location: Salzburg-Flughafen

Current Time: Dec 4, 2016 at 3:09:01 am

Latest Report: Dec 4, 2016 at 2:20 am


Visibility: N/A

Pressure: 30.24 "Hg (27.56 "Hg at 738m altitude)

Humidity: 93%

Dew Point: 28 °F

Location of Saalfelden am Steinernen MeerLocation

Past Weather in Saalfelden am Steinernen Meer — Graph

°F

Saalfelden am Steinernen Meer Temperature Yesterday

Maximum temperature yesterday: 36 °F (at 1:50 am)
Minimum temperature yesterday: 30 °F (at 6:20 am)
Average temperature yesterday: 33 °F

High & Low Weather Summary for the Past Weeks

 TemperatureHumidityPressure
High70 °F (Nov 21, 12:50 pm)100% (Nov 24, 12:20 am)30.51 "Hg (Nov 24, 12:20 am)
Low18 °F (Nov 29, 7:20 am)31% (Nov 21, 12:50 pm)29.68 "Hg (Nov 21, 1:50 pm)
Average41 °F76%30.09 "Hg
* Reported Nov 19 1:20 am — Dec 4 1:50 am, Saalfelden am Steinernen Meer, Weather by CustomWeather, © 2016

Note: Actual official high and low records may vary slightly from our data, if they occured in-between our weather recording intervals... More about our weather records

Advertising

Saalfelden am Steinernen Meer Weather History for the Previous 24 Hours

Scroll right to see more
 ConditionsComfort  
Time TempWeatherWind HumidityBarometerVisibility
1:50 am
Sun, Dec 4
30 °FPassing clouds.2 mph86%30.24 "HgN/A
1:20 am30 °FPartly cloudy.3 mph93%30.24 "HgN/A
12:50 am30 °FPassing clouds.3 mph93%30.24 "HgN/A
12:20 am30 °FPartly cloudy.3 mph93%30.24 "HgN/A
11:50 pm
Sat, Dec 3
32 °FPassing clouds.2 mph87%30.24 "HgN/A
11:20 pm32 °FPassing clouds.3 mph87%30.24 "HgN/A
10:50 pm32 °FPassing clouds.3 mph87%30.24 "HgN/A
10:20 pm32 °FPassing clouds.3 mph87%30.24 "HgN/A
9:50 pm32 °FPassing clouds.2 mph87%30.24 "HgN/A
9:20 pm32 °FPassing clouds.3 mph87%30.24 "HgN/A
8:50 pm32 °FPassing clouds.3 mph87%30.21 "HgN/A
8:20 pm34 °FPassing clouds.3 mph87%30.21 "HgN/A
7:50 pm32 °FPassing clouds.3 mph93%30.21 "HgN/A
7:20 pm34 °FPassing clouds.3 mph87%30.21 "HgN/A
6:50 pm34 °FPassing clouds.3 mph87%30.21 "HgN/A
6:20 pm34 °FPassing clouds.3 mph87%30.21 "HgN/A
5:50 pm34 °FPassing clouds.3 mph87%30.21 "HgN/A
5:20 pm34 °FPassing clouds.5 mph81%30.21 "HgN/A
4:50 pm34 °FPassing clouds.5 mph81%30.18 "HgN/A
4:20 pm34 °FPassing clouds.3 mph87%30.18 "HgN/A
3:50 pm36 °FPartly sunny.7 mph81%30.18 "HgN/A
3:20 pm36 °FPartly sunny.7 mph87%30.18 "HgN/A
2:50 pm36 °FBroken clouds.7 mph87%30.18 "HgN/A
2:20 pm36 °FBroken clouds.7 mph87%30.18 "HgN/A
1:50 pm36 °FBroken clouds.7 mph87%30.18 "HgN/A
1:20 pm36 °FBroken clouds.7 mph87%30.18 "HgN/A
12:50 pm36 °FBroken clouds.7 mph87%30.18 "HgN/A
12:20 pm34 °FBroken clouds.7 mph93%30.18 "HgN/A
11:50 am34 °FBroken clouds.6 mph93%30.18 "HgN/A
11:20 am34 °FBroken clouds.6 mph93%30.21 "HgN/A
10:50 am34 °FBroken clouds.5 mph93%30.21 "HgN/A
10:20 am34 °FBroken clouds.5 mph93%30.21 "Hg5 mi
9:50 am34 °FPartly sunny.3 mph93%30.21 "Hg5 mi
8:50 am32 °FPartly sunny.2 mph93%30.18 "Hg5 mi
8:20 am32 °FPartly sunny.2 mph93%30.18 "Hg4 mi
7:50 am32 °FPartly sunny.2 mph93%30.18 "Hg4 mi
7:20 am30 °FPartly cloudy.3 mph100%30.18 "Hg5 mi
6:50 am30 °FPassing clouds.6 mph100%30.18 "Hg4 mi
6:20 am30 °FLight freezing rain. Passing clouds.6 mph100%30.18 "Hg2 mi
5:50 am32 °FPartly cloudy.3 mph93%30.15 "Hg4 mi
5:20 am32 °FIce fog.3 mph93%30.15 "Hg4 mi
4:50 am34 °FPassing clouds.3 mph93%30.15 "Hg6 mi
4:20 am34 °FPartly cloudy.5 mph93%30.15 "HgN/A
3:50 am34 °FPartly cloudy.3 mph93%30.15 "HgN/A
3:20 am36 °FPassing clouds.3 mph93%30.15 "Hg5 mi
Weather by CustomWeather, © 2016

See weather overviewHow to use our weather pages